Wind_Speed
9 9 11 11 13 13 12 14 15 13 12 10 14 13 17 21 26 28 29 36 36 12 20 16 19 18 21 22 20 20 16 11 7 8 9 13 12 9 9 11 7 4 4
9 10 11 14 11 10 11 10 11 11 14 15 13 16 18 17 21 26 27 27 30 35 14 19 18 20 23 24 27 24 22 16 19 15 14 11 13 14 10 9 12 9 6
12 13 13 14 15 18 15 13 14 13 11 15 16 17 19 20 19 18 21 25 27 26 31 11 14 24 26 26 28 26 29 27 21 22 19 17 14 12 13 11 12 14 12
14 16 17 19 21 20 19 16 15 17 15 17 22 19 19 23 23 22 20 23 23 24 18 20 20 21 15 21 32 30 28 30 30 26 23 22 19 15 14 14 15 14 16
14 16 18 18 17 18 20 17 16 18 19 21 25 26 24 24 23 24 23 18 20 23 22 17 17 20 21 20 20 34 32 30 26 29 25 24 23 22 20 18 18 18 15
14 17 18 20 22 22 23 23 20 18 19 20 25 27 27 27 26 27 24 24 20 19 22 22 21 21 20 21 19 15 34 32 30 26 26 27 24 26 24 19 17 20 19
14 17 19 21 22 23 23 22 23 23 23 23 23 27 30 32 35 35 31 31 30 25 21 24 25 23 25 23 22 16 21 37 36 33 36 31 31 29 28 29 24 19 22
15 17 19 21 24 26 27 27 26 25 27 25 25 27 27 31 34 35 33 33 34 33 29 23 20 26 26 23 24 23 12 11 38 39 34 38 35 32 30 29 28 27 22
15 18 19 22 24 26 28 31 31 31 29 28 29 31 29 29 32 30 31 35 35 34 36 33 27 21 24 26 21 21 17 11 12 22 42 42 42 39 40 35 32 30 31
18 20 22 24 26 29 32 34 36 36 37 31 25 27 28 31 34 34 35 37 35 35 34 36 35 31 23 24 27 24 17 20 16 14 15 31 46 47 42 44 44 41 38
18 20 23 26 29 31 33 35 37 37 37 34 32 31 33 32 34 35 36 43 40 33 33 30 34 35 34 25 28 29 28 26 25 23 20 19 21 34 48 48 47 48 44
21 22 25 28 30 31 33 34 34 35 35 34 33 32 32 33 35 36 38 41 42 44 39 31 31 31 36 34 30 30 30 33 33 31 28 29 25 25 25 32 42 46 48
23 26 28 30 33 34 34 35 35 36 35 35 35 34 34 35 36 38 39 41 40 39 45 44 36 33 33 33 36 37 35 33 36 37 40 36 33 29 31 31 31 36 44
24 28 30 32 34 36 37 37 37 36 36 35 35 35 36 36 38 38 38 39 36 38 41 39 40 39 35 33 33 38 41 41 41 42 43 49 46 36 41 41 39 39 36
26 28 31 34 36 38 40 40 39 40 38 38 37 38 38 40 39 40 41 40 38 42 39 34 36 35 38 34 31 29 31 42 46 44 48 46 51 54 52 49 46 46 44
30 31 34 36 39 41 43 45 45 43 44 43 41 41 43 43 46 47 49 42 41 39 35 39 39 38 38 35 38 38 39 32 34 38 43 50 55 55 56 57 55 52 50
33 35 37 38 40 42 44 48 50 47 49 48 49 47 47 49 51 52 50 44 45 46 49 51 45 43 41 37 38 46 46 46 45 44 43 50 54 59 60 61 61 61 58
37 39 40 41 44 47 48 48 51 53 53 54 52 50 53 53 53 55 52 49 47 49 53 50 49 50 47 43 42 46 50 52 56 58 55 59 59 65 66 66 67 65 65
41 42 42 45 46 49 51 50 52 55 57 57 58 56 58 59 61 61 58 53 47 53 58 57 56 53 54 50 49 53 56 59 58 56 53 53 56 60 66 70 72 71 71
45 45 43 47 50 53 54 55 55 58 60 63 61 62 65 66 66 67 64 61 57 58 60 61 62 61 58 56 56 58 64 61 57 54 54 57 58 56 60 64 70 72 74
47 48 49 52 54 59 62 60 49 60 66 71 63 71 71 69 71 72 69 64 66 65 65 68 65 67 63 64 62 64 61 60 61 56 48 52 53 57 62 65 71 75 79
50 51 52 53 58 64 58 38 53 63 65 70 69 74 73 73 73 77 72 73 73 71 71 70 71 70 69 70 70 65 60 58 57 59 55 56 53 55 56 59 64 74 80
55 55 54 52 58 57 43 38 63 77 74 68 78 76 76 74 74 78 76 76 72 74 73 73 74 74 72 73 69 65 63 61 63 66 62 63 66 65 66 69 74 72 70
59 58 56 51 52 35 38 49 77 81 76 81 80 77 78 80 79 79 75 75 77 77 76 73 74 75 73 69 67 66 68 70 72 74 71 67 74 74 76 80 82 80 80
62 62 60 60 45 46 63 76 85 82 83 83 80 81 81 82 78 77 74 78 79 78 74 77 79 77 74 73 75 78 80 77 76 79 76 68 73 75 73 71 73 73 76
65 68 67 66 64 60 69 75 78 83 84 81 83 83 81 81 81 75 77 77 77 76 80 81 79 79 81 81 85 89 85 80 77 75 75 69 65 62 61 63 65 63 59
Wind_Direction
354 359 355 356 6 13 36 46 68 65 61 54 28 37 31 21 18 16 15 19 21 343 242 255 261 261 260 262 267 276 283 247 235 279 269 243 238 244 252 263 277 257 221
2 354 351 353 0 11 26 29 32 42 43 40 29 34 40 39 20 18 16 9 10 22 349 264 270 272 266 263 260 262 266 267 248 256 267 255 244 246 251 267 257 273 247
8 2 359 3 11 10 10 9 3 10 3 14 26 37 32 34 42 31 11 5 4 11 26 351 303 293 276 270 265 259 255 259 259 253 260 253 249 251 245 251 251 260 268
16 11 13 9 10 9 4 357 354 352 12 14 16 21 16 24 15 29 28 14 11 6 12 19 18 5 325 286 264 258 254 256 255 257 255 248 251 250 245 254 250 255 257
18 15 17 9 2 355 354 353 346 337 348 351 356 1 8 16 13 3 9 12 7 3 3 356 12 359 3 338 289 240 248 258 253 254 252 254 251 249 248 253 247 246 251
19 14 11 5 0 355 353 348 343 334 340 335 337 344 347 352 1 0 356 355 358 346 345 346 335 345 4 2 5 262 233 241 257 251 255 255 255 252 247 255 261 254 249
13 8 11 9 7 6 2 352 345 340 334 335 339 337 337 344 349 347 347 348 344 347 344 339 341 324 337 351 0 3 258 240 237 245 258 251 251 248 246 250 257 261 250
6 2 4 6 6 8 4 1 356 343 331 323 327 337 333 339 342 343 344 344 336 336 337 340 332 332 327 323 343 343 333 300 244 241 241 257 259 247 248 250 252 253 256
347 352 352 355 354 352 354 355 355 354 349 330 319 324 332 335 336 333 335 339 332 326 327 327 332 322 322 312 314 326 319 341 355 257 245 241 244 253 259 250 250 252 253
337 341 341 346 345 346 347 349 351 349 350 348 328 322 326 330 333 333 330 332 333 326 320 317 316 318 313 310 299 307 304 294 300 315 289 254 248 245 244 257 258 255 253
334 336 333 333 338 340 342 345 345 347 347 344 343 332 327 322 326 330 329 329 329 323 314 307 305 309 313 305 301 287 298 303 287 282 297 275 266 259 250 249 251 261 257
330 334 333 336 336 335 337 337 342 343 340 336 333 329 323 323 324 326 325 328 329 327 323 310 300 295 297 301 301 287 284 282 287 285 284 282 273 270 266 260 256 251 252
323 325 327 331 332 333 332 332 335 337 340 337 337 335 335 331 329 328 328 326 327 329 325 317 315 310 300 295 294 285 285 279 276 275 278 281 274 253 264 274 276 258 253
321 318 321 325 326 325 327 332 333 332 333 335 335 336 337 333 331 329 328 326 325 323 325 319 315 316 313 303 300 293 284 277 277 275 271 272 273 259 260 266 272 269 266
314 313 317 320 323 326 327 327 328 330 332 335 335 334 336 333 331 329 327 324 326 328 329 322 327 316 315 308 310 298 293 276 276 277 268 264 263 269 269 270 268 267 262
311 313 316 320 323 325 328 327 328 330 330 333 332 331 333 334 333 334 332 324 322 326 325 324 319 312 311 308 314 313 306 287 281 276 276 275 267 260 262 265 267 269 259
308 312 316 320 321 325 326 325 325 328 329 331 331 330 332 335 334 335 330 324 319 322 327 327 323 322 317 304 308 314 314 312 303 291 277 273 271 270 272 272 269 267 270
305 309 314 318 322 325 323 322 321 323 326 329 327 331 331 330 331 329 328 325 317 317 322 322 320 318 316 311 304 312 310 300 298 297 280 277 269 263 264 267 269 265 263
303 307 313 317 321 320 318 318 319 321 324 328 326 329 331 328 328 327 327 326 319 319 322 318 319 316 312 314 310 312 306 301 294 293 288 279 270 269 267 265 266 266 263
300 304 311 315 315 314 313 314 316 322 324 326 324 326 328 328 326 327 326 325 323 321 316 316 315 317 312 311 313 309 307 305 298 293 290 282 276 272 267 265 262 261 260
299 305 310 312 314 313 312 309 312 323 324 326 325 326 327 326 324 323 322 322 322 320 317 317 314 314 311 311 313 308 303 303 299 297 294 282 278 274 270 266 262 260 259
298 302 307 310 315 315 311 301 321 324 323 322 321 323 324 323 322 322 320 320 319 318 317 315 312 311 310 313 312 308 305 301 298 297 294 287 284 281 275 270 264 260 258
295 299 305 313 318 307 297 295 319 322 320 315 320 321 321 319 319 319 319 317 315 315 313 312 314 313 313 313 310 307 305 301 298 295 293 289 286 281 277 273 271 268 262
290 296 301 306 311 311 284 294 308 313 314 314 317 317 318 317 319 316 317 313 315 314 314 312 313 313 313 312 309 307 304 301 298 293 289 285 283 281 280 277 274 272 269
290 292 296 296 294 277 284 292 300 307 307 311 315 315 315 315 314 311 311 315 315 316 314 313 314 313 312 310 310 309 305 301 298 295 293 291 286 285 282 277 274 271 269
289 290 292 291 291 288 286 289 297 303 307 312 313 313 312 310 312 311 313 317 319 316 314 312 310 311 312 312 311 309 305 301 299 296 295 293 291 287 285 282 277 273 267
Height
10977 10975 10973 10971 10969 10967 10966 10965 10963 10961 10958 10956 10953 10948 10945 10942 10937 10932 10928 10923 10915 10912 10916 10919 10918 10917 10918 10918 10919 10920 10921 10922 10922 10922 10922 10921 10921 10921 10921 10922 10922 10921 10920
10978 10975 10973 10971 10969 10967 10966 10965 10963 10961 10959 10958 10954 10950 10945 10942 10938 10935 10930 10925 10922 10918 10915 10916 10916 10915 10915 10915 10916 10917 10917 10920 10920 10920 10920 10919 10919 10920 10920 10920 10921 10921 10920
10979 10977 10974 10973 10970 10967 10966 10965 10963 10961 10959 10958 10955 10951 10947 10943 10939 10936 10932 10928 10924 10921 10918 10916 10915 10913 10912 10911 10910 10911 10912 10914 10916 10917 10918 10917 10917 10917 10917 10917 10918 10919 10919
10981 10979 10976 10974 10971 10970 10968 10966 10964 10961 10959 10957 10954 10951 10948 10943 10940 10937 10934 10930 10925 10921 10919 10916 10914 10910 10908 10905 10905 10904 10905 10908 10909 10911 10913 10914 10915 10914 10914 10915 10915 10915 10917
10983 10981 10978 10976 10974 10971 10969 10967 10964 10960 10958 10955 10952 10949 10946 10943 10939 10935 10933 10930 10927 10922 10918 10915 10911 10908 10904 10900 10896 10898 10899 10900 10904 10906 10909 10911 10911 10911 10911 10911 10911 10912 10913
10983 10981 10978 10976 10973 10971 10968 10965 10963 10960 10956 10952 10948 10945 10942 10939 10937 10934 10930 10928 10925 10921 10917 10914 10910 10906 10903 10899 10893 10890 10894 10898 10897 10901 10903 10905 10906 10907 10908 10908 10909 10909 10910
10982 10981 10978 10975 10973 10969 10967 10964 10961 10957 10954 10951 10947 10943 10938 10935 10932 10927 10925 10922 10919 10918 10914 10910 10908 10903 10899 10896 10893 10890 10889 10890 10893 10895 10896 10899 10901 10902 10903 10904 10904 10905 10906
10980 10979 10978 10976 10973 10969 10966 10963 10960 10956 10951 10947 10944 10941 10938 10933 10930 10925 10922 10918 10913 10911 10909 10908 10905 10901 10897 10894 10891 10889 10886 10884 10885 10888 10891 10890 10892 10894 10896 10898 10900 10901 10901
10979 10978 10975 10974 10972 10970 10966 10961 10957 10954 10949 10945 10941 10937 10934 10931 10927 10925 10920 10916 10910 10906 10903 10900 10900 10899 10896 10891 10889 10887 10884 10881 10879 10879 10881 10884 10885 10885 10887 10890 10892 10894 10896
10977 10975 10973 10972 10971 10968 10965 10960 10955 10950 10946 10943 10939 10935 10931 10928 10924 10920 10916 10913 10909 10903 10898 10894 10893 10891 10890 10888 10885 10883 10880 10878 10875 10873 10872 10873 10874 10877 10879 10879 10882 10885 10888
10976 10974 10972 10971 10968 10965 10961 10956 10953 10947 10944 10940 10937 10933 10929 10924 10920 10916 10911 10905 10903 10901 10895 10891 10888 10884 10881 10882 10880 10877 10875 10873 10871 10868 10866 10865 10866 10867 10869 10870 10873 10874 10878
10973 10972 10971 10967 10964 10963 10959 10956 10951 10947 10942 10939 10935 10930 10925 10921 10917 10913 10908 10902 10897 10889 10887 10886 10881 10878 10875 10872 10871 10870 10869 10866 10865 10863 10862 10861 10859 10858 10857 10858 10860 10864 10866
10969 10967 10966 10963 10960 10958 10955 10952 10949 10945 10941 10936 10931 10927 10923 10918 10913 10908 10904 10897 10891 10886 10879 10871 10872 10871 10867 10863 10860 10859 10857 10856 10854 10853 10852 10852 10850 10849 10849 10849 10848 10850 10852
10966 10964 10961 10959 10957 10954 10951 10948 10944 10940 10935 10931 10926 10922 10919 10914 10908 10904 10901 10896 10889 10882 10875 10869 10862 10856 10855 10853 10850 10846 10845 10845 10843 10842 10840 10839 10838 10839 10839 10839 10839 10839 10839
10964 10962 10959 10955 10952 10948 10944 10940 10938 10933 10928 10924 10920 10915 10911 10908 10903 10899 10893 10886 10880 10875 10868 10863 10857 10851 10845 10841 10840 10838 10834 10830 10830 10827 10827 10826 10826 10824 10825 10826 10827 10827 10828
10958 10956 10953 10950 10945 10941 10936 10932 10928 10924 10920 10917 10913 10909 10904 10900 10894 10888 10881 10875 10870 10866 10863 10857 10850 10844 10838 10831 10824 10820 10819 10818 10815 10811 10810 10809 10810 10809 10809 10809 10810 10811 10811
10952 10949 10947 10944 10941 10937 10932 10923 10918 10915 10912 10909 10903 10899 10894 10889 10883 10878 10873 10866 10859 10853 10848 10843 10838 10832 10827 10822 10816 10809 10802 10798 10795 10796 10795 10793 10792 10791 10791 10792 10793 10794 10796
10946 10944 10941 10938 10933 10927 10923 10919 10912 10907 10903 10897 10893 10889 10883 10878 10875 10870 10865 10858 10849 10843 10838 10833 10826 10819 10814 10810 10804 10797 10791 10784 10778 10774 10772 10771 10769 10769 10770 10770 10770 10773 10775
10940 10937 10934 10931 10926 10921 10915 10910 10906 10899 10893 10888 10883 10877 10872 10866 10861 10856 10849 10846 10839 10830 10822 10816 10811 10804 10797 10794 10787 10783 10777 10772 10764 10756 10752 10748 10744 10743 10744 10744 10745 10747 10749
10932 10930 10928 10923 10918 10913 10906 10901 10896 10888 10881 10877 10871 10866 10860 10854 10845 10839 10834 10828 10822 10815 10809 10801 10793 10785 10779 10775 10772 10765 10755 10749 10741 10737 10732 10726 10722 10722 10720 10720 10720 10721 10724
10924 10920 10917 10913 10907 10901 10894 10889 10885 10879 10871 10864 10858 10852 10845 10839 10832 10824 10817 10812 10805 10799 10792 10784 10774 10768 10761 10754 10751 10745 10738 10729 10718 10716 10714 10708 10707 10702 10698 10696 10694 10695 10697
10914 10911 10910 10907 10900 10889 10882 10877 10874 10868 10864 10855 10848 10842 10833 10826 10818 10810 10801 10794 10786 10780 10773 10764 10756 10749 10742 10734 10727 10720 10715 10707 10700 10692 10693 10684 10684 10680 10678 10675 10673 10671 10669
10901 10900 10900 10899 10888 10873 10867 10866 10861 10855 10851 10845 10837 10829 10822 10816 10807 10798 10790 10780 10771 10766 10758 10749 10739 10729 10723 10714 10706 10699 10692 10687 10679 10669 10671 10664 10655 10655 10652 10647 10642 10643 10646
10890 10891 10890 10889 10881 10865 10859 10851 10849 10848 10841 10835 10826 10816 10811 10803 10795 10782 10775 10766 10755 10746 10739 10731 10723 10713 10704 10695 10687 10680 10673 10667 10658 10647 10646 10646 10628 10627 10621 10616 10610 10611 10612
10878 10878 10880 10876 10877 10874 10854 10846 10846 10841 10831 10823 10813 10804 10798 10791 10782 10772 10760 10750 10739 10729 10720 10710 10701 10691 10682 10673 10665 10656 10646 10640 10631 10616 10609 10615 10603 10597 10590 10583 10577 10578 10577
10867 10863 10863 10861 10860 10859 10851 10843 10840 10829 10820 10810 10802 10792 10784 10775 10765 10755 10745 10734 10724 10714 10704 10693 10682 10670 10660 10648 10637 10628 10617 10608 10599 10590 10579 10580 10572 10567 10562 10555 10548 10546 10551